Weather History for PAWG - January, 2012

Change the Weather History Date:

Friday, January 6, 2012

  Actual Average Record
Temperature  
Mean Temperature 36 °F -  
Max Temperature 39 °F 31 °F 62 °F (1958)
Min Temperature 33 °F 22 °F 1 °F (1966)
Degree Days  
Heating Degree Days 29    
Moisture  
Dew Point 29 °F    
Average Humidity 75    
Maximum Humidity 87    
Minimum Humidity 60    
Precipitation  
Precipitation 0.00 in - - ()
Sea Level Pressure  
Sea Level Pressure 29.90 in    
Wind  
Wind Speed 13 mph (ESE)    
Max Wind Speed 24 mph    
Max Gust Speed 30 mph    
Visibility 10 miles    
Events      
Averages and records for this station are not official NWS values.
T = Trace of Precipitation, MM = Missing Value Source: NWS Daily Summary

Daily Weather History Graph

Daily Weather History Graph

Search for Another Location

Airport or City:

Trip Planner

Search our weather history database for the weather conditions in past years. The results will help you decide how hot, cold, wet, or windy it might be!

Date:

Astronomy

Jan. 06, 2012 Rise Set
Actual Time 8:21 AM AKST 3:29 PM AKST
Civil Twilight 7:34 AM AKST 4:16 PM AKST
Nautical Twilight 6:45 AM AKST 5:05 PM AKST
Astronomical Twilight 5:59 AM AKST 5:51 PM AKST
Moon 1:19 PM AKST (1/6) 6:13 AM AKST (1/6)
Length of Visible Light 8h 41m
Length of Day
7h 07m
Waxing Gibbous, 94% of the Moon is Illuminated
Jan 6
Waxing Gibbous
Jan 8
Full
Jan 16
Last Quarter
Jan 22
New
Jan 30
First Quarter

Hourly Weather History & Observations

Time (AKST) Temp. Windchill Dew Point Humidity Pressure Visibility Wind Dir Wind Speed Gust Speed Precip Events Conditions
12:16 AM 33.8 °F 25.8 °F 28.4 °F 81% 30.06 in 10.0 mi East 10.4 mph - N/A   Clear
12:36 AM 33.8 °F 25.3 °F 28.4 °F 81% 30.06 in 10.0 mi East 11.5 mph - N/A   Clear
12:56 AM 33.8 °F 24.8 °F 28.4 °F 81% 30.05 in 10.0 mi East 12.7 mph - N/A   Clear
1:16 AM 33.8 °F 23.9 °F 28.4 °F 81% 30.04 in 10.0 mi East 15.0 mph - N/A   Clear
1:36 AM 33.8 °F 25.3 °F 28.4 °F 81% 30.04 in 10.0 mi East 11.5 mph - N/A   Clear
1:56 AM 33.8 °F 24.8 °F 28.4 °F 81% 30.03 in 10.0 mi East 12.7 mph - N/A   Clear
2:16 AM 33.8 °F 24.8 °F 26.6 °F 75% 30.02 in 10.0 mi East 12.7 mph - N/A   Mostly Cloudy
2:36 AM 33.8 °F 24.8 °F 26.6 °F 75% 30.01 in 10.0 mi East 12.7 mph - N/A   Partly Cloudy
2:56 AM 33.8 °F 24.3 °F 28.4 °F 81% 30.01 in 10.0 mi East 13.8 mph - N/A   Clear
3:16 AM 33.8 °F 25.8 °F 28.4 °F 81% 30.01 in 10.0 mi East 10.4 mph - N/A   Clear
3:36 AM 33.8 °F 25.3 °F 26.6 °F 75% 30.00 in 10.0 mi ESE 11.5 mph - N/A   Mostly Cloudy
3:56 AM 33.8 °F 25.8 °F 26.6 °F 75% 29.99 in 10.0 mi ESE 10.4 mph - N/A   Overcast
4:16 AM 33.8 °F 24.8 °F 26.6 °F 75% 29.97 in 10.0 mi East 12.7 mph - N/A   Overcast
4:36 AM 33.8 °F 26.4 °F 26.6 °F 75% 29.97 in 10.0 mi East 9.2 mph - N/A   Overcast
4:56 AM 33.8 °F 24.8 °F 26.6 °F 75% 29.95 in 10.0 mi East 12.7 mph - N/A   Overcast
5:16 AM 35.6 °F 27.5 °F 28.4 °F 75% 29.94 in 10.0 mi East 11.5 mph - N/A   Mostly Cloudy
5:36 AM 37.4 °F 29.8 °F 26.6 °F 65% 29.93 in 10.0 mi ESE 11.5 mph - N/A   Overcast
5:56 AM 37.4 °F 29.8 °F 26.6 °F 65% 29.92 in 10.0 mi East 11.5 mph - N/A   Overcast
6:16 AM 37.4 °F 30.3 °F 26.6 °F 65% 29.91 in 10.0 mi ESE 10.4 mph - N/A   Overcast
6:36 AM 37.4 °F 26.9 °F 26.6 °F 65% 29.90 in 10.0 mi SE 20.7 mph 26.5 mph N/A   Overcast
6:56 AM 37.4 °F 27.5 °F 24.8 °F 60% 29.90 in 10.0 mi SE 18.4 mph 24.2 mph N/A   Overcast
7:16 AM 37.4 °F 28.2 °F 26.6 °F 65% 29.89 in 10.0 mi ESE 16.1 mph 24.2 mph N/A   Overcast
7:36 AM 37.4 °F 28.2 °F 28.4 °F 70% 29.88 in 10.0 mi East 16.1 mph - N/A   Overcast
7:56 AM 37.4 °F 29.3 °F 28.4 °F 70% 29.88 in 10.0 mi ESE 12.7 mph - N/A   Overcast
8:16 AM 37.4 °F 29.8 °F 28.4 °F 70% 29.88 in 10.0 mi ESE 11.5 mph - N/A   Overcast
8:36 AM 37.4 °F 30.3 °F 28.4 °F 70% 29.88 in 10.0 mi East 10.4 mph - N/A   Overcast
8:56 AM 37.4 °F 30.3 °F 28.4 °F 70% 29.88 in 10.0 mi East 10.4 mph - N/A   Overcast
9:16 AM 37.4 °F 28.2 °F 28.4 °F 70% 29.87 in 10.0 mi SE 16.1 mph - N/A   Overcast
9:36 AM 39.2 °F 28.5 °F 26.6 °F 61% 29.85 in 10.0 mi SE 24.2 mph 27.6 mph N/A   Overcast
9:56 AM 37.4 °F 26.9 °F 28.4 °F 70% 29.85 in 10.0 mi SE 20.7 mph 26.5 mph N/A   Overcast
10:16 AM 37.4 °F 27.8 °F 28.4 °F 70% 29.85 in 10.0 mi SE 17.3 mph 27.6 mph N/A   Overcast
10:36 AM 37.4 °F 28.2 °F 28.4 °F 70% 29.85 in 10.0 mi SSE 16.1 mph 27.6 mph N/A   Overcast
10:56 AM 37.4 °F 27.5 °F 28.4 °F 70% 29.84 in 10.0 mi SE 18.4 mph 24.2 mph N/A   Overcast
11:16 AM 37.4 °F 28.5 °F 28.4 °F 70% 29.83 in 10.0 mi SSE 15.0 mph 19.6 mph N/A   Overcast
11:36 AM 37.4 °F 27.8 °F 28.4 °F 70% 29.82 in 10.0 mi SE 17.3 mph 24.2 mph N/A   Overcast
11:56 AM 39.2 °F 29.8 °F 28.4 °F 65% 29.81 in 10.0 mi SE 18.4 mph 26.5 mph N/A   Overcast
12:16 PM 39.2 °F 29.8 °F 28.4 °F 65% 29.81 in 10.0 mi ESE 18.4 mph 23.0 mph N/A   Overcast
12:36 PM 39.2 °F 30.2 °F 30.2 °F 70% 29.81 in 10.0 mi SE 17.3 mph 23.0 mph N/A   Overcast
12:56 PM 37.4 °F 27.2 °F 30.2 °F 75% 29.81 in 10.0 mi ESE 19.6 mph 27.6 mph N/A   Overcast
1:16 PM 37.4 °F 26.4 °F 30.2 °F 75% 29.80 in 10.0 mi SE 23.0 mph 29.9 mph N/A   Overcast
1:36 PM 37.4 °F 26.9 °F 30.2 °F 75% 29.80 in 10.0 mi SE 20.7 mph 25.3 mph N/A   Overcast
1:56 PM 37.4 °F 27.2 °F 30.2 °F 75% 29.80 in 10.0 mi SE 19.6 mph - N/A   Overcast
2:16 PM 37.4 °F 27.2 °F 30.2 °F 75% 29.81 in 10.0 mi ESE 19.6 mph 26.5 mph N/A   Overcast
2:36 PM 39.2 °F 29.3 °F 32.0 °F 75% 29.81 in 10.0 mi SE 20.7 mph 28.8 mph N/A   Overcast
2:56 PM 37.4 °F 27.2 °F 30.2 °F 75% 29.82 in 10.0 mi ESE 19.6 mph 26.5 mph N/A   Overcast
3:16 PM 39.2 °F 31.2 °F 32.0 °F 75% 29.83 in 10.0 mi ESE 13.8 mph 25.3 mph N/A   Overcast
3:36 PM 37.4 °F 27.8 °F 32.0 °F 81% 29.84 in 10.0 mi SE 17.3 mph 23.0 mph N/A   Overcast
3:56 PM 37.4 °F 29.3 °F 32.0 °F 81% 29.85 in 6.0 mi SSE 12.7 mph 20.7 mph N/A   Overcast
4:16 PM 37.4 °F 32.1 °F 33.8 °F 87% 29.86 in 6.0 mi South 6.9 mph 19.6 mph N/A   Overcast
4:36 PM 37.4 °F 32.8 °F 33.8 °F 87% 29.87 in 6.0 mi SE 5.8 mph - N/A   Overcast
4:56 PM 37.4 °F 34.9 °F 33.8 °F 87% 29.87 in 9.0 mi South 3.5 mph - N/A   Overcast
5:16 PM 37.4 °F - 32.0 °F 81% 29.87 in 9.0 mi Calm Calm - N/A   Overcast
5:36 PM 37.4 °F - 33.8 °F 87% 29.88 in 9.0 mi Calm Calm - N/A   Overcast
5:56 PM 37.4 °F 34.9 °F 33.8 °F 87% 29.89 in 9.0 mi ENE 3.5 mph - N/A   Overcast
6:16 PM 37.4 °F 32.1 °F 33.8 °F 87% 29.88 in 9.0 mi East 6.9 mph - N/A   Overcast
6:36 PM 37.4 °F 28.9 °F 33.8 °F 87% 29.88 in 9.0 mi East 13.8 mph - N/A   Overcast
6:56 PM 37.4 °F 33.8 °F 33.8 °F 87% 29.89 in 10.0 mi SSW 4.6 mph - N/A   Overcast
7:16 PM 39.2 °F - 33.8 °F 81% 29.88 in 10.0 mi Calm Calm - N/A   Overcast
7:36 PM 39.2 °F 35.9 °F 33.8 °F 81% 29.89 in 10.0 mi ESE 4.6 mph - N/A   Overcast
7:56 PM 39.2 °F 34.2 °F 33.8 °F 81% 29.90 in 10.0 mi ESE 6.9 mph - N/A   Mostly Cloudy
8:16 PM 39.2 °F 34.2 °F 33.8 °F 81% 29.91 in 10.0 mi East 6.9 mph - N/A   Mostly Cloudy
8:36 PM 39.2 °F 35.0 °F 33.8 °F 81% 29.91 in 10.0 mi SE 5.8 mph - N/A   Mostly Cloudy
8:56 PM 39.2 °F 33.6 °F 33.8 °F 81% 29.91 in 10.0 mi SE 8.1 mph - N/A   Overcast
9:16 PM 39.2 °F 33.0 °F 35.6 °F 87% 29.91 in 10.0 mi SE 9.2 mph 18.4 mph N/A   Overcast
9:36 PM 39.2 °F 30.8 °F 35.6 °F 87% 29.90 in 10.0 mi ESE 15.0 mph 20.7 mph N/A   Overcast
9:56 PM 39.2 °F 31.2 °F 35.6 °F 87% 29.90 in 10.0 mi ESE 13.8 mph 19.6 mph N/A   Overcast
10:16 PM 39.2 °F 31.2 °F 33.8 °F 81% 29.90 in 10.0 mi East 13.8 mph - N/A   Overcast
10:36 PM 39.2 °F 31.6 °F 33.8 °F 81% 29.90 in 10.0 mi ESE 12.7 mph 16.1 mph N/A   Overcast
10:56 PM 39.2 °F 32.0 °F 35.6 °F 87% 29.90 in 10.0 mi ESE 11.5 mph - N/A   Overcast
11:16 PM 39.2 °F 32.0 °F 33.8 °F 81% 29.89 in 10.0 mi East 11.5 mph 17.3 mph N/A   Overcast
11:36 PM 39.2 °F 31.2 °F 35.6 °F 87% 29.88 in 10.0 mi ESE 13.8 mph - N/A   Overcast
11:56 PM 39.2 °F 31.2 °F 33.8 °F 81% 29.88 in 10.0 mi ESE 13.8 mph - N/A   Overcast